Hourly Data Report for September 02, 2017

All times are specified in Local Standard Time (LST). Add 1 hour to adjust for Daylight Saving Time where and when it is observed.

BUCTOUCHE CDA CS
NEW BRUNSWICK

46°25'49.006" N
64°46'05.009" W
35.90 m
8100593
71666
ABT

Download Data

Hourly Data (September 2017)
Hourly Data Report for September 2, 2017
Temp Definition
°C
Dew Point Temp Definition
°C
Rel Hum Definition
%
Wind Dir Definition
10's deg

Wind Spd Definition
km/h
Visibility Definition
km
Stn Press Definition
kPa
Hmdx Definition


Wind Chill Definition


Weather Definition


TIME
00:00 9.2 6.3 83 27 12   100.56     LegendNANA
01:00 9.1 6.3 82 26 13   100.66     LegendNANA
02:00 8.3 5.9 85 25 12   100.72     LegendNANA
03:00 7.4 5.6 89 24 14   100.78     LegendNANA
04:00 7.0 5.2 88 27 11   100.84     LegendNANA
05:00 7.3 5.3 87 26 13   100.91     LegendNANA
06:00 7.0 4.9 86 28 11   100.97     LegendNANA
07:00 8.2 5.0 80 28 14   101.05     LegendNANA
08:00 10.0 5.3 72 30 16   101.14     LegendNANA
09:00 10.9 5.0 67 30 20   101.20     LegendNANA
10:00 12.0 5.0 62 30 14   101.24     LegendNANA
11:00 12.0 4.8 61 30 13   101.28     LegendNANA
12:00 13.1 5.5 60 31 10   101.30     LegendNANA
13:00 13.6 5.3 57 29 10   101.33     LegendNANA
14:00 15.4 5.6 52 29 11   101.34     LegendNANA
15:00 16.7 5.8 48 30 9   101.36     LegendNANA
16:00 15.7 7.2 57 7 8   101.40     LegendNANA
17:00 16.7 7.3 54 13 7   101.43     LegendNANA
18:00 15.9 7.3 57 14 9   101.47     LegendNANA
19:00 12.9 7.7 71 16 8   101.53     LegendNANA
20:00 11.1 7.3 77 17 7   101.63     LegendNANA
21:00 8.5 6.1 85 16 2   101.68     LegendNANA
22:00 7.8 5.9 87 18 3   101.72     LegendNANA
23:00 7.2 5.6 90 21 2   101.73     LegendNANA

Notes on Data Quality.

Legend

  • E = Estimated
  • M = Missing
  • NA = Not Available
  • ‡ = Partner data that is not subject to review by the National Climate Archives
Date modified: